Regional Weather Roundup
Issued by NWS

Home | Current Version | Previous Version | Text Only | Print | Product List | Glossary On
Versions: 1 2 3 4 5 6 7 8 9 10 11 12 13 14 15 16 17 18 19 20 21 22 23 24 25 26 27 28 29 30 31 32 33 34 35 36 37 38 39 40 41 42 43 44 45 46 47 48 49 50
000
ASUS43 KBIS 031802
RWRND

NORTH DAKOTA REGIONAL WEATHER ROUNDUP
NATIONAL WEATHER SERVICE BISMARCK ND
100 PM CDT MON AUG 03 2015

NOTE: "FAIR" INDICATES FEW OR NO CLOUDS BELOW 12,000 FEET WITH NO
SIGNIFICANT WEATHER AND/OR OBSTRUCTIONS TO VISIBILITY.


NDZ001>003-009>011-017-031900-
NORTHWEST NORTH DAKOTA

CITY           SKY/WX    TMP DP  RH WIND       PRES   REMARKS
WILLISTON      SUNNY     77  47  34 VRB6      30.03F
6HR MIN TEMP:  51; 6HR MAX TEMP:  78;

MINOT          SUNNY     76  45  33 W9        30.01S
MINOT AFB      SUNNY     80  45  29 VRB3      30.00F
$$

NDZ018>021-031>035-040>046-031900-
SOUTHWEST NORTH DAKOTA

CITY           SKY/WX    TMP DP  RH WIND       PRES   REMARKS
BISMARCK       SUNNY     77  50  38 W9        30.02F
6HR MIN TEMP:  55; 6HR MAX TEMP:  78;

DICKINSON      SUNNY     76  48  37 E5        30.02F
GARRISON         N/A     74  49  41 VRB7      30.02F
6HR MIN TEMP:  51; 6HR MAX TEMP:  74;

HETTINGER ARPT SUNNY     77  50  38 VRB6      30.04F
$$

NDZ004>008-012>016-024-026-027-054-031900-
NORTHEAST NORTH DAKOTA

CITY           SKY/WX    TMP DP  RH WIND       PRES   REMARKS
GRAND FORKS    MOSUNNY   74  51  44 NW14G21   29.93F
GRND FRKS AFB  SUNNY     74  51  44 N15       29.94F
DEVILS LAKE    SUNNY     72  46  40 NW12G17   29.97F
$$

NDZ022-023-025-028>030-036>039-047>053-031900-
SOUTHEAST NORTH DAKOTA

CITY           SKY/WX    TMP DP  RH WIND       PRES   REMARKS
FARGO          SUNNY     77  46  33 N18       29.94F
6HR MIN TEMP:  53; 6HR MAX TEMP:  77;

JAMESTOWN      SUNNY     74  46  36 NW12      29.99F
$$




USA.gov is the U.S. government's official web portal to all federal, state and local government web resources and services.